Miscellaneous Local Product
Issued by NWS Hastings, NE

Home | Current Version | Previous Version | Text Only | Print | Product List | Glossary Off
Versions: 1 2 3 4 5 6 7 8 9 10 11 12 13 14 15 16 17 18 19 20 21 22 23 24 25 26 27 28 29 30 31 32 33 34 35 36 37 38 39 40 41 42 43 44 45 46 47 48 49 50

000
AXUS43 KGID 111202
MISGRI

GID CWA HOURLY WEATHER ROUNDUP
NATIONAL WEATHER SERVICE HASTINGS NE
600 AM CST MON DEC 11 2017

NOTE: "FAIR" INDICATES FEW OR NO CLOUDS BELOW 12,000 FEET WITH NO
SIGNIFICANT WEATHER AND/OR OBSTRUCTIONS TO VISIBILITY.

...SOUTH CENTRAL NEBRASKA...

CITY           SKY/WX    TMP DP  RH WIND       PRES   REMARKS
GRAND ISLAND   CLOUDY    38  16  40 W15       30.05S WCI  29
KEARNEY        CLOUDY    39  14  36 W10       30.10R WCI  32
HASTINGS       CLOUDY    40  14  34 NW15      30.07S WCI  32
ORD            CLOUDY    47  16  29 NW18G28   30.03S
YORK           CLOUDY    39  16  38 W17       30.01S WCI  30
AURORA         CLOUDY    43  16  33 W17       30.03R
LEXINGTON      PTCLDY    35  15  43 W14       30.13S WCI  26
HOLDREGE       CLOUDY    40  16  37 NW15G23   30.12R WCI  32
HEBRON         CLEAR     42  14  31 NW12G20   30.05S

...NEBRASKA PANHANDLE...

CITY           SKY/WX    TMP DP  RH WIND       PRES   REMARKS
CHADRON        CLOUDY    40  15  36 W13       30.23S WCI  32
ALLIANCE       CLOUDY    38  14  37 W13       30.22R WCI  30
SCOTTSBLUFF    CLOUDY    29  12  49 NW13      30.26F WCI  19
SIDNEY         CLOUDY    36   7  29 W14       30.24F WCI  27

...WESTERN AND NORTH CENTRAL NEBRASKA...

CITY           SKY/WX    TMP DP  RH WIND       PRES   REMARKS
VALENTINE      PTCLDY    44  17  33 W13       30.07S
AINSWORTH      CLOUDY    42  19  39 W12       30.05S
ONEILL         CLEAR     47  19  33 NW25G35   30.00R
BROKEN BOW     CLOUDY    48  16  27 NW21G29   30.08S
IMPERIAL       CLOUDY    40   8  26 W15       30.21R WCI  32
NORTH PLATTE   CLOUDY    27  18  69 NW9       30.17S WCI  18
MCCOOK         CLOUDY    37  11  34 NW14      30.18R WCI  28

...EASTERN NEBRASKA...

CITY           SKY/WX    TMP DP  RH WIND       PRES   REMARKS
NORFOLK        CLOUDY    46  18  32 W21       29.93R
SO SIOUX CITY  CLOUDY    37  21  52 W16       29.87F WCI  28
TEKAMAH        CLOUDY    34  17  50 W5        29.89F WCI  30
COLUMBUS       CLOUDY    41  18  39 W12       29.97F
ALBION         CLOUDY    48  19  31 NW17G24   29.98F
OMAHA EPPLEY   CLOUDY    43  17  35 W13       29.90F
OFFUTT AFB     CLOUDY    37  18  45 W8        29.90F WCI  31
MILLARD        CLEAR     43  19  38 NW10      29.92S
LINCOLN        CLOUDY    43  16  33 W12       29.99S
NEBRASKA CITY  CLOUDY    40  18  42 W17       29.93S WCI  31
BEATRICE       CLEAR     35  17  48 W10       30.00S WCI  27
FALLS CITY     CLOUDY    36  17  46 NW8       29.94F WCI  30

...NORTHERN KANSAS...

CITY           SKY/WX    TMP DP  RH WIND       PRES   REMARKS
GOODLAND       CLOUDY    35   3  26 W16       30.23F WCI  25
HILL CITY      CLEAR     40   9  28 NW9       30.15S WCI  34
NORTON         SUNNY     43   3  19 W16       30.16R
PHILLIPSBURG   CLEAR     41  10  28 CALM      30.14R
SMITH CENTER   CLEAR     32  12  43 NW3       30.12R
HAYS           CLEAR     36   9  32 W12       30.15R WCI  28
RUSSELL        CLOUDY    30  12  47 SW8       30.12R WCI  22
CONCORDIA      CLOUDY    36  13  38 W15       30.06R WCI  27
SALINA         CLEAR     37  12  35 W7        30.10R WCI  32
TOPEKA         CLEAR     31  21  66 W7        30.01F WCI  24



USA.gov is the U.S. government's official web portal to all federal, state and local government web resources and services.